Location: ???????
(54.6339°N, 39.4245°E)
Time: 18:09:20
(UTC+00:00)

Cosmos 2082 Rocket - Pass Details

Date: 19 May 2025
Orbit: 831 x 853 km, 71.0° (Epoch: 20 June)

Event Time Altitude Azimuth Distance (km) Brightness Sun altitude
Exits shadow 18:18:15 - 136° (SE) 2,670 4.1 -6.1°
Reaches altitude 10° 18:19:19 10° 128° (SE) 2,441 4.0 -6.2°
Maximum altitude 18:22:10 14° 97° (E) 2,153 3.9 -6.4°
Drops below altitude 10° 18:25:01 10° 66° (ENE) 2,454 4.5 -6.7°
Sets 18:28:37 0° 43° (NE) 3,397 5.4 -7.0°
